Location: Poughquag
(41.6090°N, 73.6820°W)
Time: 23:33:43
(UTC-05:00)

Tiros 1 despin weight - Pass Details

Date: 07 December 2023
Orbit: 581 x 624 km, 48.2° (Epoch: 21 February)

Event Time Altitude Azimuth Distance (km) Brightness Sun altitude
Rises 17:37:37 0° 250° (WSW) 2,807 ? -13.3°
Reaches altitude 10° 17:39:55 10° 254° (WSW) 1,903 ? -13.7°
Maximum altitude 17:44:15 65° 336° (NNW) 641 ? -14.5°
Enters shadow 17:46:44 24° 53° (NE) 1,215 ? -14.9°
